Retour au catalogue

ATLAS F R/B

ActifHEO
NORAD 11142·ROCKET BODY·🇺🇸 United States

Lancé Dec 11, 1978 depuis Vandenberg Space Force Base

Loading…

Prochains Passages (prochaines 24 heures)

TLE

FraisSource: Space-Track

Époque: Sep 5, 2026, 22:28 UTC

1 11142U 78112B   26248.93616482 -.00000009  00000-0  00000-0 0  9999
2 11142  64.2573 102.4164 4653680 245.9118  59.4412  5.34624786919995

Suivez ATLAS F R/B en temps réel avec AllMySat

Download on the App Store